Regional Weather Roundup
Issued by NWS

Home | Current Version | Previous Version | Graphics & Text | Print | Product List | Glossary On
Versions: 1 2 3 4 5 6 7 8 9 10 11 12 13 14 15 16 17 18 19 20 21 22 23 24 25 26 27 28 29 30 31 32 33 34 35 36 37 38 39 40 41 42 43 44 45 46 47 48 49 50
000
ASUS43 KFSD 271110
RWRSD

WEATHER ROUNDUP FOR SOUTH DAKOTA
NATIONAL WEATHER SERVICE SIOUX FALLS SD
600 AM CDT MON APR 27 2015

NOTE: "FAIR" INDICATES FEW OR NO CLOUDS BELOW 12,000 FEET WITH NO
SIGNIFICANT WEATHER AND/OR OBSTRUCTIONS TO VISIBILITY.


SDZ001>005-009-010-012>017-271200-
NORTHWEST AND NORTH CENTRAL SOUTH DAKOTA

CITY           SKY/WX    TMP DP  RH WIND       PRES   REMARKS
BUFFALO          N/A     38  37  97 NW18      30.16R
FAITH            N/A     44  42  93 N9        30.18R
MOBRIDGE       PTCLDY    38  33  82 N3        30.16R
$$

SDZ012>016-024>037-041>051-057-063-072>074-271200-
SOUTHWEST AND SOUTH CENTRAL SOUTH DAKOTA

CITY           SKY/WX    TMP DP  RH WIND       PRES   REMARKS
RAPID CTY ARPT CLOUDY    42  39  89 N21       30.19R
PIERRE         PTCLDY    33  30  88 NW5       30.17R WCI  29
CUSTER         CLOUDY    37  35  92 CALM      30.18S FOG
ELLSWORTH AFB  CLOUDY    42  41  94 N21       30.18S
PHILIP         CLOUDY    47  39  74 CALM      30.17R
PINE RIDGE     MOCLDY    37  35  92 NE3       30.18R
SPEARFISH      MOCLDY    36  36 100 NW6       30.24S
WINNER         FAIR      37  28  70 CALM      30.18R
$$

SDZ004>011-016>023-039-040-271200-
NORTHEAST SOUTH DAKOTA

CITY           SKY/WX    TMP DP  RH WIND       PRES   REMARKS
ABERDEEN       PTCLDY    32  26  78 N6        30.20R WCI  26
WATERTOWN      CLEAR     30  23  75 CALM      30.19R
BROOKINGS      CLEAR     34  27  75 CALM      30.20R
SISSETON         N/A     32  25  75 SW5       30.19R WCI  27
$$

SDZ017-020-022-023-036>040-048>070-271200-
SOUTHEAST SOUTH DAKOTA

CITY           SKY/WX    TMP DP  RH WIND       PRES   REMARKS
SIOUX FALLS    PTCLDY    35  26  69 N3        30.18R
HURON          CLEAR     29  24  82 NW6       30.19R WCI  23
CHAMBERLAIN    CLEAR     37  31  79 CALM      30.18R
MITCHELL       CLEAR     37  32  82 W3        30.19R
YANKTON        PTCLDY    39  27  60 E3        30.17R
$$

ABBREVIATIONS USED IN REMARKS
   TC - TEMPERATURE IN CELSIUS
  WCI - WIND CHILL INDEX
   HX - HEAT INDEX
  VSB - VISIBILITY



USA.gov is the U.S. government's official web portal to all federal, state and local government web resources and services.